Location: *
(47.6569°N, 7.4256°E)
Time: 23:49:14
(UTC+00:00)

Cosmos 2266 Rocket - Pass Details

Date: 14 December 2019
Orbit: 933 x 1009 km, 82.9° (Epoch: 18 January)

Event Time Altitude Azimuth Distance (km) Brightness Sun altitude
Rises 17:28:31 0° 161° (SSE) 3,727 7.0 -17.5°
Reaches altitude 10° 17:31:12 10° 153° (SSE) 2,780 6.3 -18.0°
Maximum altitude 17:37:02 39° 88° (E) 1,475 4.4 -18.9°
Enters shadow 17:40:19 23° 37° (NE) 1,987 5.2 -19.4°
